Regional Weather Roundup
Issued by NWS Upton, NY

Current Version | Previous Version | Text Only | Print | Product List | Glossary On
Versions: 1 2 3 4 5 6 7 8 9 10 11 12 13 14 15 16 17 18 19 20 21 22 23 24 25 26 27 28 29 30 31 32 33 34 35 36 37 38 39 40 41 42 43 44 45 46 47 48 49 50
000
ASUS41 KOKX 221805
RWROKX

REGIONAL WEATHER ROUNDUP
NATIONAL WEATHER SERVICE NEW YORK NY
100 PM EST SAT NOV 22 2014

NOTE: "FAIR" INDICATES FEW OR NO CLOUDS BELOW 12,000 FEET WITH NO
SIGNIFICANT WEATHER AND/OR OBSTRUCTIONS TO VISIBILITY.

NYZ071-072-176-178-NJZ106-104-221900-
NEW YORK CITY METRO AREA


CITY           SKY/WX    TMP DP  RH WIND       PRES   REMARKS
CENTRAL PARK   SUNNY     40  10  29 VRB6G18   30.35F
LAGUARDIA APRT MOSUNNY   41  12  30 SW10      30.34F
KENNEDY INTL   MOSUNNY   41  15  35 SW18      30.37F
NEWARK/LIBERTY MOSUNNY   42  12  29 SW12      30.33F
BRNX BOT. GARD   N/A    N/A N/A N/A S13       30.32F
TETERBORO      SUNNY     41  10  28 SW10      30.32F
$$

NYZ177-179-078>081-221900-
LONG ISLAND NEW YORK

CITY           SKY/WX    TMP DP  RH WIND       PRES   REMARKS
FARMINGDALE    SUNNY     42  16  34 SW13      30.35F
ISLIP          MOSUNNY   40  17  39 SW17      30.33F WCI  31
SHIRLEY        SUNNY     39  18  42 SW14G26   30.35F WCI  31
WESTHAMPTON    SUNNY     41  21  44 SW23G31   30.35F
MONTAUK POINT    N/A     41  22  46 SW14G29   30.34F
$$

NYZ052-065-067-221900-
HUDSON VALLEY

CITY           SKY/WX    TMP DP  RH WIND       PRES   REMARKS
WHITE PLAINS   SUNNY     39  10  30 SW10      30.29F WCI  32
NEWBURGH       SUNNY     39  12  33 W12G23    30.29F WCI  32
MONTGOMERY     SUNNY     39  11  31 SW16G23   30.26  WCI  30
POUGHKEEPSIE   SUNNY     41   9  26 SW8G21    30.28F
ALBANY         MOSUNNY   35  12  38 S16G23    30.21F WCI  25
$$

NJZ001-105-106-008-010-013-015-019>022-104-221900-
NEW JERSEY

CITY           SKY/WX    TMP DP  RH WIND       PRES   REMARKS
NEWARK/LIBERTY MOSUNNY   42  12  29 SW12      30.33F
TETERBORO      SUNNY     41  10  28 SW10      30.32F
CALDWELL       SUNNY     39  10  30 SW6       30.32F WCI  35
MORRISTOWN     MOSUNNY   41  12  30 SW18      30.32F
SOMERVILLE     SUNNY     42  11  28 VRB6      30.32F
SUSSEX         SUNNY     38  12  34 SW16G22   30.28F WCI  29
ANDOVER          N/A     38  11  32 SW10      30.30F WCI  31
TRENTON        SUNNY     41  15  35 SW14      30.35F
MILLVILLE      SUNNY     42  17  36 SW9       30.40F
ATLANTIC CITY  SUNNY     43  17  35 SW15      30.40F
WRIGHTSTOWN    SUNNY     43  14  31 SW15      30.34F
TOMS RIVER     SUNNY     45  14  29 SW6       30.37F
BELMAR         SUNNY     43  12  28 SW12G17   30.35F
$$

PAZ047>061-062-071-221900-
EASTERN PENNSYLVANIA

CITY           SKY/WX    TMP DP  RH WIND       PRES   REMARKS
PHILADELPHIA   MOSUNNY   43  17  35 SW17G26   30.39F
ALLENTOWN      SUNNY     42  11  28 SW10      30.32F
SCRANTON       MOSUNNY   40  11  30 W13       30.24F WCI  32
$$

CTZ002-004>006-009-010-012-RIZ004-006-007-MAZ004-011-015-221900-
SOUTHERN NEW ENGLAND
 IN CT

CITY           SKY/WX    TMP DP  RH WIND       PRES   REMARKS
BRADLEY INTL   PTSUNNY   42  11  28 SW13      30.24F
HARTFORD       PTSUNNY   39  11  31 SW10      30.28F WCI  32
DANBURY        SUNNY     38  10  31 SW13      30.29F WCI  30
WTRBRY/OXFORD  SUNNY     39  12  33 SW9G17    30.28F WCI  33
BRIDGEPORT     SUNNY     39  20  46 SW22G28   30.33F WCI  29
MERIDEN        PTSUNNY   41  10  28 SW9       30.29F
NEW HAVEN      MOSUNNY   42  21  43 SW17G25   30.32F
CHESTER        FAIR      37  21  52 SW15G24   30.29F WCI  28
GROTON         MOSUNNY   40  23  50 SW15G28   30.31F WCI  32
WILLIMANTIC    PTSUNNY   41   7  24 SW14      30.27F

 IN RI

CITY           SKY/WX    TMP DP  RH WIND       PRES   REMARKS
PROVIDENCE     PTSUNNY   42  15  33 SW15      30.27F
BLOCK ISLAND   SUNNY     43  18  36 SW26G35   30.30F
WESTERLY       MOSUNNY   41  21  44 SW15G26   30.32F

 IN MA

CITY           SKY/WX    TMP DP  RH WIND       PRES   REMARKS
BOSTON         PTSUNNY   41   8  25 SW20G29   30.22F
WORCESTER      MOSUNNY   35   4  27 SW17G23   30.19F WCI  25
WESTFIELD      PTSUNNY   40  10  29 S9        30.22F WCI  34
PROVINCETOWN   PTSUNNY   45  21  39 SW25      30.24F
NANTUCKET      MOSUNNY   46  30  53 SW21G35   30.29F
$$

ANZ330-335-338-340-345-350-353-355-221900-
COASTAL MARINE OBSERVATIONS


STATION/POSITION TIME  SKY/WX   TEMP    WIND        PRES    VSBY  WAVE
                                AIR SEA DIR/SP/G                  HT/PER
                 (UTC)          (F)     (DEG/KT/KT) (MB)    (MI)  (FT/S)
NY HARB ENTRANCE 1800            40 55  240/ 16/ 19 1028.5          2/ 3
4S FIRE IS       1800               51                N/A           4/ 5
20S FIRE ISLAND  1800            40 54  240/ 19/ 25 1028.4          3/ 4
23SW MTP         1800                                 N/A           5/ 5
HUDSON CANYON    1800            43 58  240/ 16/ 21 1029.4          3/ 4
EXECUTION ROCKS  1800            41 47  230/ 16/ 21   N/A
WESTERN LI SOUND 1800            38     220/ 17/ 21   N/A           2/ 3
CENTRAL LI SOUND 1800            39 51  230/ 16/ 21   N/A           4/ 4
EASTERN LI SOUND 1700            41 53  240/ 21/ 27   N/A
ROBBINS REEF     1800            38     240/ 15/ 19 1026.4
$$


>>>>>>>>>>>>>>>>>>>>>>>>>>>> KEY <<<<<<<<<<<<<<<<<<<<<<<<<<<
>                                                          <
>     SKY/WX - SKY CONDITION/PRESENT WEATHER               <
>     TMP    - TEMPERATURE IN FAHRENHEIT                   <
>     DP     - DEWPOINT IN FAHRENHEIT                      <
>     RH     - RELATIVE HUMIDITY IN PERCENT                <
>     WIND   - DIRECTION AND SPEED IN MPH                  <
>     PRES   - MEAN SEA LEVEL PRESSURE IN INCHES OF HG     <
>     WCI    - WIND CHILL INDEX                            <
>     VSB    - VISIBILITY IN MILES                         <
>     HX     - HEAT INDEX                                  <
>     TC     - TEMPERATURE IN CELSIUS                      <
>     VRB    - VARIABLE WIND DIRECTION                     <
>                                                          <
>>>>>>>>>>>>>>>>>>>>>>>>>>>> KEY <<<<<<<<<<<<<<<<<<<<<<<<<<<





USA.gov is the U.S. government's official web portal to all federal, state and local government web resources and services.